contact:dominique.lefevre@mio.osupytheas.fr, maurice.libes@osupytheas.fr, didier.mallarino@osupytheas.fr
Project:EMSO http://www.emso-fr.org/EMSO-France
Depth: 2436.0 m
Title:EMSO Ligure Ouest : Data MII capteur MICROCAT
DateTime_Computer,Latitude,Longitude,Temperature,Conductivity,Pressure,DateTime_Instrument
DateTime_Computer,Latitude,Longitude,degC,S m-1,dbar,DateTime_Instrument
2020-08-06T00:02:51Z,42.805,6.029,13.2975,4.59983,2470.171,2020-8-06T02:03:39Z
2020-08-06T00:05:54Z,42.805,6.029,13.2970,4.59982,2470.133,2020-8-06T02:06:42Z
2020-08-06T00:08:57Z,42.805,6.029,13.2978,4.59980,2470.133,2020-8-06T02:09:46Z
2020-08-06T00:12:01Z,42.805,6.029,13.2977,4.59992,2470.11,2020-8-06T02:12:49Z
2020-08-06T00:15:04Z,42.805,6.029,13.2982,4.59996,2470.133,2020-8-06T02:15:52Z
2020-08-06T00:18:07Z,42.805,6.029,13.2978,4.59994,2470.171,2020-8-06T02:18:56Z
2020-08-06T00:21:10Z,42.805,6.029,13.2974,4.59981,2470.133,2020-8-06T02:21:59Z
2020-08-06T00:24:14Z,42.805,6.029,13.2979,4.59983,2470.133,2020-8-06T02:25:02Z
2020-08-06T00:27:17Z,42.805,6.029,13.2973,4.59981,2470.124,2020-8-06T02:28:05Z
2020-08-06T00:30:20Z,42.805,6.029,13.2977,4.59984,2470.133,2020-8-06T02:31:08Z
2020-08-06T00:33:23Z,42.805,6.029,13.2972,4.59984,2470.147,2020-8-06T02:34:12Z
2020-08-06T00:36:27Z,42.805,6.029,13.2983,4.59989,2470.124,2020-8-06T02:37:15Z
2020-08-06T00:39:30Z,42.805,6.029,13.2980,4.59990,2470.133,2020-8-06T02:40:18Z
2020-08-06T00:42:33Z,42.805,6.029,13.2975,4.59984,2470.11,2020-8-06T02:43:22Z
2020-08-06T00:45:37Z,42.805,6.029,13.2973,4.59983,2470.11,2020-8-06T02:46:25Z
2020-08-06T00:48:40Z,42.805,6.029,13.2971,4.59984,2470.11,2020-8-06T02:49:28Z
2020-08-06T00:51:43Z,42.805,6.029,13.2977,4.59981,2470.124,2020-8-06T02:52:31Z
2020-08-06T00:54:46Z,42.805,6.029,13.2979,4.59983,2470.119,2020-8-06T02:55:35Z
2020-08-06T00:57:50Z,42.805,6.029,13.2974,4.59984,2470.1,2020-8-06T02:58:38Z
2020-08-06T01:00:53Z,42.805,6.029,13.2978,4.59991,2470.133,2020-8-06T03:01:41Z
2020-08-06T01:03:56Z,42.805,6.029,13.2979,4.60002,2470.11,2020-8-06T03:04:45Z
2020-08-06T01:06:59Z,42.805,6.029,13.2977,4.60000,2470.11,2020-8-06T03:07:48Z
2020-08-06T01:10:03Z,42.805,6.029,13.2974,4.59988,2470.11,2020-8-06T03:10:51Z
2020-08-06T01:13:06Z,42.805,6.029,13.2973,4.59983,2470.1,2020-8-06T03:13:54Z
2020-08-06T01:16:09Z,42.805,6.029,13.2978,4.59986,2470.077,2020-8-06T03:16:57Z
2020-08-06T01:19:12Z,42.805,6.029,13.2975,4.59984,2470.077,2020-8-06T03:20:01Z
2020-08-06T01:22:16Z,42.805,6.029,13.2984,4.59982,2470.124,2020-8-06T03:23:04Z
2020-08-06T01:25:19Z,42.805,6.029,13.2979,4.59996,2470.133,2020-8-06T03:26:07Z
2020-08-06T01:28:22Z,42.805,6.029,13.2974,4.59984,2470.077,2020-8-06T03:29:11Z
2020-08-06T01:31:25Z,42.805,6.029,13.2978,4.59979,2470.1,2020-8-06T03:32:14Z
2020-08-06T01:34:29Z,42.805,6.029,13.2976,4.59985,2470.124,2020-8-06T03:35:17Z
2020-08-06T01:37:32Z,42.805,6.029,13.2975,4.59986,2470.11,2020-8-06T03:38:20Z
2020-08-06T01:40:35Z,42.805,6.029,13.2980,4.60010,2470.087,2020-8-06T03:41:24Z
2020-08-06T01:43:38Z,42.805,6.029,13.2972,4.59990,2470.091,2020-8-06T03:44:27Z
2020-08-06T01:46:42Z,42.805,6.029,13.2986,4.60006,2470.063,2020-8-06T03:47:30Z
2020-08-06T01:49:45Z,42.805,6.029,13.2977,4.59998,2470.053,2020-8-06T03:50:33Z
2020-08-06T01:52:48Z,42.805,6.029,13.2977,4.59995,2470.063,2020-8-06T03:53:37Z
2020-08-06T01:55:51Z,42.805,6.029,13.2981,4.59990,2470.063,2020-8-06T03:56:40Z
2020-08-06T01:58:55Z,42.805,6.029,13.2974,4.59986,2470.077,2020-8-06T03:59:43Z
2020-08-06T02:01:58Z,42.805,6.029,13.2979,4.59986,2470.087,2020-8-06T04:02:46Z
2020-08-06T02:05:01Z,42.805,6.029,13.2982,4.59992,2470.053,2020-8-06T04:05:49Z
2020-08-06T02:08:04Z,42.805,6.029,13.2983,4.59999,2470.11,2020-8-06T04:08:53Z
2020-08-06T02:11:08Z,42.805,6.029,13.2979,4.59987,2470.063,2020-8-06T04:11:56Z
2020-08-06T02:14:11Z,42.805,6.029,13.2974,4.59983,2470.087,2020-8-06T04:14:59Z
2020-08-06T02:17:14Z,42.805,6.029,13.2972,4.59984,2470.077,2020-8-06T04:18:03Z
2020-08-06T02:20:17Z,42.805,6.029,13.2976,4.59990,2470.04,2020-8-06T04:21:06Z
2020-08-06T02:23:21Z,42.805,6.029,13.2982,4.59999,2470.063,2020-8-06T04:24:09Z
2020-08-06T02:26:24Z,42.805,6.029,13.2975,4.59991,2470.063,2020-8-06T04:27:12Z
2020-08-06T02:29:27Z,42.805,6.029,13.2976,4.59981,2470.063,2020-8-06T04:30:16Z
2020-08-06T02:32:30Z,42.805,6.029,13.2979,4.59985,2470.077,2020-8-06T04:33:19Z
2020-08-06T02:35:34Z,42.805,6.029,13.2974,4.59983,2470.053,2020-8-06T04:36:22Z
2020-08-06T02:38:37Z,42.805,6.029,13.2975,4.59985,2470.063,2020-8-06T04:39:25Z
2020-08-06T02:41:40Z,42.805,6.029,13.2974,4.59983,2470.053,2020-8-06T04:42:29Z
2020-08-06T02:44:43Z,42.805,6.029,13.2979,4.59987,2470.053,2020-8-06T04:45:32Z
2020-08-06T02:47:47Z,42.805,6.029,13.2974,4.59989,2470.063,2020-8-06T04:48:35Z
2020-08-06T02:50:50Z,42.805,6.029,13.2975,4.59984,2470.04,2020-8-06T04:51:38Z
2020-08-06T02:53:53Z,42.805,6.029,13.2979,4.59994,2470.03,2020-8-06T04:54:42Z
2020-08-06T02:56:57Z,42.805,6.029,13.2975,4.59992,2470.03,2020-8-06T04:57:45Z
2020-08-06T03:00:00Z,42.805,6.029,13.2989,4.60005,2470.063,2020-8-06T05:00:48Z
2020-08-06T03:03:03Z,42.805,6.029,13.2983,4.59996,2469.993,2020-8-06T05:03:51Z
2020-08-06T03:06:06Z,42.805,6.029,13.2974,4.59989,2470.04,2020-8-06T05:06:55Z
2020-08-06T03:09:09Z,42.805,6.029,13.2976,4.59983,2470.04,2020-8-06T05:09:58Z
2020-08-06T03:12:13Z,42.805,6.029,13.2979,4.59986,2470.04,2020-8-06T05:13:01Z
2020-08-06T03:15:16Z,42.805,6.029,13.2976,4.59984,2470.04,2020-8-06T05:16:05Z
2020-08-06T03:18:19Z,42.805,6.029,13.2979,4.59990,2470.04,2020-8-06T05:19:08Z
2020-08-06T03:21:23Z,42.805,6.029,13.2978,4.59990,2470.017,2020-8-06T05:22:11Z
2020-08-06T03:24:26Z,42.805,6.029,13.2979,4.59993,2470.03,2020-8-06T05:25:14Z
2020-08-06T03:27:29Z,42.805,6.029,13.2978,4.59986,2470.053,2020-8-06T05:28:18Z
2020-08-06T03:30:33Z,42.805,6.029,13.2980,4.59988,2470.063,2020-8-06T05:31:21Z
2020-08-06T03:33:36Z,42.805,6.029,13.2974,4.59987,2470.017,2020-8-06T05:34:24Z
2020-08-06T03:36:39Z,42.805,6.029,13.2979,4.60002,2470.017,2020-8-06T05:37:28Z
2020-08-06T03:39:42Z,42.805,6.029,13.2987,4.60001,2470.03,2020-8-06T05:40:31Z
2020-08-06T03:42:45Z,42.805,6.029,13.2982,4.59994,2470.053,2020-8-06T05:43:34Z
2020-08-06T03:45:49Z,42.805,6.029,13.2976,4.59991,2470.053,2020-8-06T05:46:37Z
2020-08-06T03:48:52Z,42.805,6.029,13.2995,4.60011,2470.053,2020-8-06T05:49:41Z
2020-08-06T03:51:55Z,42.805,6.029,13.2974,4.60009,2470.017,2020-8-06T05:52:44Z
2020-08-06T03:54:59Z,42.805,6.029,13.2983,4.59990,2470.04,2020-8-06T05:55:47Z
2020-08-06T03:58:02Z,42.805,6.029,13.2987,4.60009,2470.04,2020-8-06T05:58:50Z
2020-08-06T04:01:05Z,42.805,6.029,13.2976,4.59996,2470.04,2020-8-06T06:01:54Z
2020-08-06T04:04:08Z,42.805,6.029,13.2976,4.59999,2470.04,2020-8-06T06:04:57Z
2020-08-06T04:07:12Z,42.805,6.029,13.2974,4.59989,2470.04,2020-8-06T06:08:00Z
2020-08-06T04:10:15Z,42.805,6.029,13.2985,4.60011,2470.077,2020-8-06T06:11:03Z
2020-08-06T04:13:18Z,42.805,6.029,13.2983,4.59991,2470.053,2020-8-06T06:14:06Z
2020-08-06T04:16:21Z,42.805,6.029,13.2987,4.59985,2470.053,2020-8-06T06:17:10Z
2020-08-06T04:19:24Z,42.805,6.029,13.2979,4.59988,2470.04,2020-8-06T06:20:13Z
2020-08-06T04:22:28Z,42.805,6.029,13.2981,4.59992,2470.017,2020-8-06T06:23:16Z
2020-08-06T04:25:31Z,42.805,6.029,13.2976,4.59994,2470.063,2020-8-06T06:26:20Z
2020-08-06T04:28:34Z,42.805,6.029,13.2986,4.59994,2470.04,2020-8-06T06:29:23Z
2020-08-06T04:31:38Z,42.805,6.029,13.2982,4.59992,2470.063,2020-8-06T06:32:26Z
2020-08-06T04:34:41Z,42.805,6.029,13.2979,4.60003,2470.017,2020-8-06T06:35:29Z
2020-08-06T04:37:44Z,42.805,6.029,13.2984,4.59994,2470.04,2020-8-06T06:38:33Z
2020-08-06T04:40:47Z,42.805,6.029,13.2976,4.59993,2470.04,2020-8-06T06:41:36Z
2020-08-06T04:43:51Z,42.805,6.029,13.2975,4.60003,2470.03,2020-8-06T06:44:39Z
2020-08-06T04:46:54Z,42.805,6.029,13.2982,4.59998,2470.04,2020-8-06T06:47:42Z
2020-08-06T04:49:57Z,42.805,6.029,13.2975,4.59996,2470.017,2020-8-06T06:50:46Z
2020-08-06T04:53:00Z,42.805,6.029,13.2980,4.59992,2470.04,2020-8-06T06:53:49Z
2020-08-06T04:56:03Z,42.805,6.029,13.2976,4.59988,2470.063,2020-8-06T06:56:52Z
2020-08-06T04:59:07Z,42.805,6.029,13.2998,4.59996,2470.063,2020-8-06T06:59:55Z
2020-08-06T05:02:10Z,42.805,6.029,13.2986,4.60014,2470.063,2020-8-06T07:02:58Z
2020-08-06T05:05:13Z,42.805,6.029,13.2982,4.59999,2470.063,2020-8-06T07:06:02Z
2020-08-06T05:08:16Z,42.805,6.029,13.2980,4.59987,2470.087,2020-8-06T07:09:05Z
2020-08-06T05:11:20Z,42.805,6.029,13.2986,4.59995,2470.077,2020-8-06T07:12:08Z
2020-08-06T05:14:23Z,42.805,6.029,13.2980,4.60004,2470.063,2020-8-06T07:15:11Z
2020-08-06T05:17:26Z,42.805,6.029,13.2977,4.59987,2470.063,2020-8-06T07:18:15Z
2020-08-06T05:20:29Z,42.805,6.029,13.2984,4.60004,2470.04,2020-8-06T07:21:18Z
2020-08-06T05:23:33Z,42.805,6.029,13.2979,4.59995,2470.1,2020-8-06T07:24:21Z
2020-08-06T05:26:36Z,42.805,6.029,13.2991,4.60011,2470.087,2020-8-06T07:27:24Z
2020-08-06T05:29:39Z,42.805,6.029,13.2982,4.60016,2470.053,2020-8-06T07:30:28Z
2020-08-06T05:32:43Z,42.805,6.029,13.2979,4.59991,2470.1,2020-8-06T07:33:31Z
2020-08-06T05:35:46Z,42.805,6.029,13.2979,4.59989,2470.04,2020-8-06T07:36:34Z
2020-08-06T05:38:49Z,42.805,6.029,13.2979,4.59989,2470.087,2020-8-06T07:39:37Z
2020-08-06T05:41:52Z,42.805,6.029,13.2977,4.59984,2470.087,2020-8-06T07:42:41Z
2020-08-06T05:44:55Z,42.805,6.029,13.2975,4.59987,2470.077,2020-8-06T07:45:44Z
2020-08-06T05:47:59Z,42.805,6.029,13.2976,4.59988,2470.11,2020-8-06T07:48:47Z
2020-08-06T05:51:02Z,42.805,6.029,13.2984,4.59993,2470.087,2020-8-06T07:51:50Z
2020-08-06T05:54:05Z,42.805,6.029,13.2976,4.59996,2470.087,2020-8-06T07:54:54Z
2020-08-06T05:57:08Z,42.805,6.029,13.2983,4.60019,2470.11,2020-8-06T07:57:57Z
2020-08-06T06:00:12Z,42.805,6.029,13.2991,4.60003,2470.087,2020-8-06T08:01:00Z
2020-08-06T06:03:15Z,42.805,6.029,13.3001,4.60013,2470.1,2020-8-06T08:04:03Z
2020-08-06T06:06:18Z,42.805,6.029,13.2982,4.59993,2470.077,2020-8-06T08:07:06Z
2020-08-06T06:09:21Z,42.805,6.029,13.2977,4.59986,2470.087,2020-8-06T08:10:10Z
2020-08-06T06:12:24Z,42.805,6.029,13.2988,4.59994,2470.11,2020-8-06T08:13:13Z
2020-08-06T06:15:28Z,42.805,6.029,13.2985,4.59992,2470.124,2020-8-06T08:16:16Z
2020-08-06T06:18:31Z,42.805,6.029,13.2978,4.59996,2470.124,2020-8-06T08:19:19Z
2020-08-06T06:21:34Z,42.805,6.029,13.2984,4.60006,2470.1,2020-8-06T08:22:23Z
2020-08-06T06:24:37Z,42.805,6.029,13.2980,4.60006,2470.124,2020-8-06T08:25:26Z
2020-08-06T06:27:41Z,42.805,6.029,13.2981,4.59997,2470.133,2020-8-06T08:28:29Z
2020-08-06T06:30:44Z,42.805,6.029,13.2974,4.59990,2470.1,2020-8-06T08:31:32Z
2020-08-06T06:33:47Z,42.805,6.029,13.2974,4.59989,2470.063,2020-8-06T08:34:36Z
2020-08-06T06:36:50Z,42.805,6.029,13.2978,4.60003,2470.124,2020-8-06T08:37:39Z
2020-08-06T06:39:54Z,42.805,6.029,13.2983,4.59995,2470.11,2020-8-06T08:40:42Z
2020-08-06T06:42:57Z,42.805,6.029,13.2989,4.60006,2470.147,2020-8-06T08:43:46Z
2020-08-06T06:46:00Z,42.805,6.029,13.2978,4.60021,2470.133,2020-8-06T08:46:49Z
2020-08-06T06:49:04Z,42.805,6.029,13.2990,4.60014,2470.087,2020-8-06T08:49:52Z
2020-08-06T06:52:07Z,42.805,6.029,13.2979,4.59997,2470.133,2020-8-06T08:52:55Z
2020-08-06T06:55:10Z,42.805,6.029,13.2979,4.59985,2470.124,2020-8-06T08:55:59Z
2020-08-06T06:58:13Z,42.805,6.029,13.2986,4.59995,2470.133,2020-8-06T08:59:02Z
2020-08-06T07:01:17Z,42.805,6.029,13.2984,4.60019,2470.124,2020-8-06T09:02:05Z
2020-08-06T07:04:20Z,42.805,6.029,13.2989,4.60014,2470.133,2020-8-06T09:05:08Z
2020-08-06T07:07:23Z,42.805,6.029,13.2989,4.60010,2470.156,2020-8-06T09:08:12Z
2020-08-06T07:10:26Z,42.805,6.029,13.2985,4.60015,2470.156,2020-8-06T09:11:15Z
2020-08-06T07:13:30Z,42.805,6.029,13.2993,4.60004,2470.147,2020-8-06T09:14:19Z
2020-08-06T07:16:34Z,42.805,6.029,13.2980,4.59998,2470.156,2020-8-06T09:17:22Z
2020-08-06T07:19:37Z,42.805,6.029,13.2982,4.60010,2470.18,2020-8-06T09:20:25Z
2020-08-06T07:22:40Z,42.805,6.029,13.2981,4.60019,2470.156,2020-8-06T09:23:28Z
2020-08-06T07:25:43Z,42.805,6.029,13.2996,4.60014,2470.156,2020-8-06T09:26:32Z
2020-08-06T07:28:46Z,42.805,6.029,13.2994,4.59999,2470.133,2020-8-06T09:29:35Z
2020-08-06T07:31:50Z,42.805,6.029,13.2982,4.60010,2470.18,2020-8-06T09:32:38Z
2020-08-06T07:34:53Z,42.805,6.029,13.2987,4.60010,2470.18,2020-8-06T09:35:41Z
2020-08-06T07:37:56Z,42.805,6.029,13.2986,4.60011,2470.156,2020-8-06T09:38:45Z
2020-08-06T07:40:59Z,42.805,6.029,13.2977,4.60004,2470.194,2020-8-06T09:41:48Z
2020-08-06T07:44:03Z,42.805,6.029,13.2983,4.60021,2470.156,2020-8-06T09:44:51Z
2020-08-06T07:47:06Z,42.805,6.029,13.2997,4.60016,2470.156,2020-8-06T09:47:54Z
2020-08-06T07:50:09Z,42.805,6.029,13.2993,4.60017,2470.171,2020-8-06T09:50:58Z
2020-08-06T07:53:13Z,42.805,6.029,13.2984,4.60011,2470.18,2020-8-06T09:54:01Z
2020-08-06T07:56:16Z,42.805,6.029,13.2993,4.60006,2470.156,2020-8-06T09:57:05Z
2020-08-06T07:59:19Z,42.805,6.029,13.2998,4.60016,2470.147,2020-8-06T10:00:08Z
2020-08-06T08:02:23Z,42.805,6.029,13.2990,4.60017,2470.156,2020-8-06T10:03:12Z
2020-08-06T08:05:26Z,42.805,6.029,13.2979,4.60008,2470.194,2020-8-06T10:06:15Z
2020-08-06T08:08:30Z,42.805,6.029,13.2982,4.60015,2470.194,2020-8-06T10:09:18Z
2020-08-06T08:11:33Z,42.805,6.029,13.2989,4.60010,2470.156,2020-8-06T10:12:21Z
2020-08-06T08:14:36Z,42.805,6.029,13.2988,4.60022,2470.194,2020-8-06T10:15:25Z
2020-08-06T08:17:39Z,42.805,6.029,13.2990,4.60011,2470.194,2020-8-06T10:18:28Z
2020-08-06T08:20:43Z,42.805,6.029,13.2992,4.60010,2470.156,2020-8-06T10:21:31Z
2020-08-06T08:23:46Z,42.805,6.029,13.2987,4.60013,2470.18,2020-8-06T10:24:34Z
2020-08-06T08:26:49Z,42.805,6.029,13.2982,4.60014,2470.194,2020-8-06T10:27:38Z
2020-08-06T08:29:52Z,42.805,6.029,13.2992,4.60013,2470.203,2020-8-06T10:30:41Z
2020-08-06T08:32:56Z,42.805,6.029,13.2987,4.60009,2470.18,2020-8-06T10:33:44Z
2020-08-06T08:35:59Z,42.805,6.029,13.2996,4.60024,2470.156,2020-8-06T10:36:47Z
2020-08-06T08:39:02Z,42.805,6.029,13.2994,4.60013,2470.156,2020-8-06T10:39:51Z
2020-08-06T08:42:05Z,42.805,6.029,13.2983,4.60016,2470.18,2020-8-06T10:42:54Z
2020-08-06T08:45:09Z,42.805,6.029,13.2986,4.60035,2470.156,2020-8-06T10:45:57Z
2020-08-06T08:48:12Z,42.805,6.029,13.2976,4.59999,2470.171,2020-8-06T10:49:00Z
2020-08-06T08:51:15Z,42.805,6.029,13.2978,4.60007,2470.171,2020-8-06T10:52:04Z
2020-08-06T08:54:18Z,42.805,6.029,13.2997,4.60012,2470.18,2020-8-06T10:55:07Z
2020-08-06T08:57:22Z,42.805,6.029,13.2996,4.60010,2470.156,2020-8-06T10:58:10Z
2020-08-06T09:00:25Z,42.805,6.029,13.2996,4.60015,2470.194,2020-8-06T11:01:13Z
2020-08-06T09:03:28Z,42.805,6.029,13.2996,4.60022,2470.18,2020-8-06T11:04:16Z
2020-08-06T09:06:31Z,42.805,6.029,13.2991,4.60009,2470.156,2020-8-06T11:07:20Z
2020-08-06T09:09:34Z,42.805,6.029,13.2984,4.59992,2470.156,2020-8-06T11:10:23Z
2020-08-06T09:12:37Z,42.805,6.029,13.2996,4.60027,2470.194,2020-8-06T11:13:26Z
2020-08-06T09:15:41Z,42.805,6.029,13.2989,4.60019,2470.18,2020-8-06T11:16:29Z
2020-08-06T09:18:44Z,42.805,6.029,13.2995,4.59994,2470.194,2020-8-06T11:19:32Z
2020-08-06T09:21:47Z,42.805,6.029,13.2999,4.60016,2470.133,2020-8-06T11:22:36Z
2020-08-06T09:24:50Z,42.805,6.029,13.2991,4.60016,2470.133,2020-8-06T11:25:39Z
2020-08-06T09:27:54Z,42.805,6.029,13.2976,4.60004,2470.133,2020-8-06T11:28:42Z
2020-08-06T09:30:57Z,42.805,6.029,13.2986,4.60020,2470.156,2020-8-06T11:31:45Z
2020-08-06T09:34:00Z,42.805,6.029,13.2993,4.60014,2470.171,2020-8-06T11:34:49Z
2020-08-06T09:37:03Z,42.805,6.029,13.2985,4.59997,2470.124,2020-8-06T11:37:52Z
2020-08-06T09:40:07Z,42.805,6.029,13.2977,4.60001,2470.133,2020-8-06T11:40:55Z
2020-08-06T09:43:10Z,42.805,6.029,13.2974,4.60004,2470.156,2020-8-06T11:43:59Z
2020-08-06T09:46:13Z,42.805,6.029,13.2976,4.59988,2470.133,2020-8-06T11:47:02Z
2020-08-06T09:49:17Z,42.805,6.029,13.2977,4.59994,2470.133,2020-8-06T11:50:05Z
2020-08-06T09:52:20Z,42.805,6.029,13.2977,4.59991,2470.156,2020-8-06T11:53:08Z
2020-08-06T09:55:23Z,42.805,6.029,13.2974,4.59981,2470.18,2020-8-06T11:56:12Z
2020-08-06T09:58:26Z,42.805,6.029,13.2977,4.59996,2470.133,2020-8-06T11:59:15Z
2020-08-06T10:01:30Z,42.805,6.029,13.2980,4.59995,2470.156,2020-8-06T12:02:18Z
2020-08-06T10:04:33Z,42.805,6.029,13.2978,4.60000,2470.133,2020-8-06T12:05:21Z
2020-08-06T10:07:36Z,42.805,6.029,13.3005,4.59995,2470.124,2020-8-06T12:08:25Z
2020-08-06T10:10:39Z,42.805,6.029,13.2993,4.60020,2470.171,2020-8-06T12:11:28Z
2020-08-06T10:13:42Z,42.805,6.029,13.2985,4.60012,2470.156,2020-8-06T12:14:31Z
2020-08-06T10:16:46Z,42.805,6.029,13.3004,4.60009,2470.087,2020-8-06T12:17:34Z
2020-08-06T10:19:49Z,42.805,6.029,13.3007,4.60026,2470.133,2020-8-06T12:20:38Z
2020-08-06T10:22:52Z,42.805,6.029,13.2980,4.60024,2470.171,2020-8-06T12:23:41Z
2020-08-06T10:25:56Z,42.805,6.029,13.2985,4.60047,2470.11,2020-8-06T12:26:44Z
2020-08-06T10:28:59Z,42.805,6.029,13.3000,4.60016,2470.11,2020-8-06T12:29:47Z
2020-08-06T10:32:02Z,42.805,6.029,13.2995,4.60012,2470.11,2020-8-06T12:32:50Z
2020-08-06T10:35:05Z,42.805,6.029,13.2985,4.60026,2470.133,2020-8-06T12:35:54Z
2020-08-06T10:38:08Z,42.805,6.029,13.2986,4.60023,2470.11,2020-8-06T12:38:57Z
2020-08-06T10:41:12Z,42.805,6.029,13.2998,4.60011,2470.124,2020-8-06T12:42:00Z
2020-08-06T10:44:15Z,42.805,6.029,13.2993,4.60012,2470.087,2020-8-06T12:45:03Z
2020-08-06T10:47:18Z,42.805,6.029,13.2977,4.59992,2470.156,2020-8-06T12:48:07Z
2020-08-06T10:50:21Z,42.805,6.029,13.2977,4.60004,2470.171,2020-8-06T12:51:10Z
2020-08-06T10:53:25Z,42.805,6.029,13.3004,4.60024,2470.1,2020-8-06T12:54:13Z
2020-08-06T10:56:28Z,42.805,6.029,13.2976,4.60002,2470.11,2020-8-06T12:57:17Z
2020-08-06T10:59:31Z,42.805,6.029,13.2975,4.59996,2470.087,2020-8-06T13:00:20Z
2020-08-06T11:02:34Z,42.805,6.029,13.2982,4.60013,2470.1,2020-8-06T13:03:23Z
2020-08-06T11:05:38Z,42.805,6.029,13.2993,4.60031,2470.063,2020-8-06T13:06:26Z
2020-08-06T11:08:41Z,42.805,6.029,13.2993,4.60017,2470.11,2020-8-06T13:09:29Z
2020-08-06T11:11:44Z,42.805,6.029,13.2994,4.60011,2470.11,2020-8-06T13:12:33Z
2020-08-06T11:14:48Z,42.805,6.029,13.2974,4.59997,2470.147,2020-8-06T13:15:36Z
2020-08-06T11:17:51Z,42.805,6.029,13.2984,4.60020,2470.1,2020-8-06T13:18:40Z
2020-08-06T11:20:54Z,42.805,6.029,13.2998,4.60022,2470.1,2020-8-06T13:21:43Z
2020-08-06T11:23:58Z,42.805,6.029,13.2992,4.60026,2470.124,2020-8-06T13:24:46Z
2020-08-06T11:27:01Z,42.805,6.029,13.3000,4.60017,2470.11,2020-8-06T13:27:49Z
2020-08-06T11:30:04Z,42.805,6.029,13.2985,4.60005,2470.087,2020-8-06T13:30:52Z
2020-08-06T11:33:07Z,42.805,6.029,13.2997,4.60038,2470.1,2020-8-06T13:33:56Z
2020-08-06T11:36:10Z,42.805,6.029,13.2991,4.60044,2470.077,2020-8-06T13:36:59Z
2020-08-06T11:39:14Z,42.805,6.029,13.3000,4.60027,2470.124,2020-8-06T13:40:02Z
2020-08-06T11:42:17Z,42.805,6.029,13.3005,4.60024,2470.077,2020-8-06T13:43:05Z
2020-08-06T11:45:20Z,42.805,6.029,13.3004,4.60014,2470.087,2020-8-06T13:46:09Z
2020-08-06T11:48:23Z,42.805,6.029,13.3004,4.60020,2470.11,2020-8-06T13:49:12Z
2020-08-06T11:51:26Z,42.805,6.029,13.3002,4.60049,2470.063,2020-8-06T13:52:15Z
2020-08-06T11:54:30Z,42.805,6.029,13.3005,4.60040,2470.063,2020-8-06T13:55:18Z
2020-08-06T11:57:33Z,42.805,6.029,13.2998,4.60026,2470.063,2020-8-06T13:58:21Z
2020-08-06T12:00:36Z,42.805,6.029,13.2996,4.60031,2470.063,2020-8-06T14:01:25Z
2020-08-06T12:03:39Z,42.805,6.029,13.2990,4.60026,2470.087,2020-8-06T14:04:28Z
2020-08-06T12:06:43Z,42.805,6.029,13.2978,4.60019,2470.063,2020-8-06T14:07:31Z
2020-08-06T12:09:46Z,42.805,6.029,13.2998,4.60026,2470.063,2020-8-06T14:10:34Z
2020-08-06T12:12:49Z,42.805,6.029,13.3000,4.60025,2470.1,2020-8-06T14:13:38Z
2020-08-06T12:15:52Z,42.805,6.029,13.3004,4.60030,2470.049,2020-8-06T14:16:41Z
2020-08-06T12:18:56Z,42.805,6.029,13.2991,4.60028,2470.087,2020-8-06T14:19:44Z
2020-08-06T12:21:59Z,42.805,6.029,13.3001,4.60016,2470.077,2020-8-06T14:22:48Z
2020-08-06T12:25:02Z,42.805,6.029,13.3009,4.60021,2470.04,2020-8-06T14:25:51Z
2020-08-06T12:28:06Z,42.805,6.029,13.3004,4.60046,2470.063,2020-8-06T14:28:54Z
2020-08-06T12:31:09Z,42.805,6.029,13.2998,4.60044,2470.063,2020-8-06T14:31:57Z
2020-08-06T12:34:12Z,42.805,6.029,13.3014,4.60022,2470.053,2020-8-06T14:35:01Z
2020-08-06T12:37:16Z,42.805,6.029,13.2986,4.60019,2470.04,2020-8-06T14:38:04Z
2020-08-06T12:40:19Z,42.805,6.029,13.2998,4.60035,2470.017,2020-8-06T14:41:07Z
2020-08-06T12:43:22Z,42.805,6.029,13.3004,4.60032,2470.077,2020-8-06T14:44:11Z
2020-08-06T12:46:25Z,42.805,6.029,13.2990,4.60031,2470.017,2020-8-06T14:47:14Z
2020-08-06T12:49:29Z,42.805,6.029,13.2999,4.60032,2470.053,2020-8-06T14:50:17Z
2020-08-06T12:52:32Z,42.805,6.029,13.2997,4.60033,2470.04,2020-8-06T14:53:20Z
2020-08-06T12:55:35Z,42.805,6.029,13.2993,4.60030,2470.03,2020-8-06T14:56:24Z
2020-08-06T12:58:38Z,42.805,6.029,13.2999,4.60021,2470.017,2020-8-06T14:59:27Z
2020-08-06T13:01:42Z,42.805,6.029,13.3001,4.60027,2470.007,2020-8-06T15:02:30Z
2020-08-06T13:04:45Z,42.805,6.029,13.2996,4.60027,2470.017,2020-8-06T15:05:33Z
2020-08-06T13:07:48Z,42.805,6.029,13.3004,4.60029,2470.017,2020-8-06T15:08:37Z
2020-08-06T13:10:52Z,42.805,6.029,13.3008,4.60038,2470.04,2020-8-06T15:11:40Z
2020-08-06T13:13:55Z,42.805,6.029,13.2999,4.60058,2470.04,2020-8-06T15:14:43Z
2020-08-06T13:16:58Z,42.805,6.029,13.2998,4.60037,2470.03,2020-8-06T15:17:47Z
2020-08-06T13:20:01Z,42.805,6.029,13.3000,4.60027,2470.017,2020-8-06T15:20:50Z
2020-08-06T13:23:05Z,42.805,6.029,13.3000,4.60041,2470.053,2020-8-06T15:23:53Z
2020-08-06T13:26:08Z,42.805,6.029,13.2999,4.60022,2470.053,2020-8-06T15:26:56Z
2020-08-06T13:29:11Z,42.805,6.029,13.3006,4.60031,2470.04,2020-8-06T15:29:59Z
2020-08-06T13:32:14Z,42.805,6.029,13.3014,4.60031,2470.04,2020-8-06T15:33:03Z
2020-08-06T13:35:17Z,42.805,6.029,13.2991,4.60049,2470.007,2020-8-06T15:36:06Z
2020-08-06T13:38:21Z,42.805,6.029,13.3000,4.60053,2470.03,2020-8-06T15:39:09Z
2020-08-06T13:41:24Z,42.805,6.029,13.2989,4.60039,2470.007,2020-8-06T15:42:12Z
2020-08-06T13:44:27Z,42.805,6.029,13.3014,4.60039,2470.017,2020-8-06T15:45:16Z
2020-08-06T13:47:30Z,42.805,6.029,13.3012,4.60046,2469.993,2020-8-06T15:48:19Z
2020-08-06T13:50:34Z,42.805,6.029,13.3011,4.60042,2470.017,2020-8-06T15:51:22Z
2020-08-06T13:53:37Z,42.805,6.029,13.3017,4.60054,2469.993,2020-8-06T15:54:25Z
2020-08-06T13:56:40Z,42.805,6.029,13.3016,4.60034,2470.007,2020-8-06T15:57:29Z
2020-08-06T13:59:43Z,42.805,6.029,13.2998,4.60049,2470.03,2020-8-06T16:00:32Z
2020-08-06T14:02:47Z,42.805,6.029,13.3011,4.60041,2469.993,2020-8-06T16:03:35Z
2020-08-06T14:05:50Z,42.805,6.029,13.3003,4.60046,2470.03,2020-8-06T16:06:38Z
2020-08-06T14:08:53Z,42.805,6.029,13.3009,4.60034,2470.03,2020-8-06T16:09:42Z
2020-08-06T14:11:56Z,42.805,6.029,13.3009,4.60046,2469.993,2020-8-06T16:12:45Z
2020-08-06T14:14:59Z,42.805,6.029,13.3008,4.60044,2470.03,2020-8-06T16:15:48Z
2020-08-06T14:18:03Z,42.805,6.029,13.2993,4.60023,2470.007,2020-8-06T16:18:51Z
2020-08-06T14:21:06Z,42.805,6.029,13.2998,4.60039,2470.017,2020-8-06T16:21:54Z
2020-08-06T14:24:09Z,42.805,6.029,13.3020,4.60053,2470.007,2020-8-06T16:24:58Z
2020-08-06T14:27:12Z,42.805,6.029,13.3003,4.60051,2469.993,2020-8-06T16:28:01Z
2020-08-06T14:30:16Z,42.805,6.029,13.3017,4.60047,2469.993,2020-8-06T16:31:04Z
2020-08-06T14:33:19Z,42.805,6.029,13.3004,4.60054,2469.993,2020-8-06T16:34:08Z
2020-08-06T14:36:23Z,42.805,6.029,13.3004,4.60047,2469.97,2020-8-06T16:37:11Z
2020-08-06T14:39:26Z,42.805,6.029,13.3008,4.60026,2470.007,2020-8-06T16:40:14Z
2020-08-06T14:42:29Z,42.805,6.029,13.2998,4.60031,2469.993,2020-8-06T16:43:17Z
2020-08-06T14:45:32Z,42.805,6.029,13.2986,4.60020,2469.993,2020-8-06T16:46:21Z
2020-08-06T14:48:35Z,42.805,6.029,13.2991,4.60035,2469.97,2020-8-06T16:49:24Z
2020-08-06T14:51:39Z,42.805,6.029,13.3004,4.60027,2470.017,2020-8-06T16:52:27Z
2020-08-06T14:54:42Z,42.805,6.029,13.2982,4.60019,2470.017,2020-8-06T16:55:31Z
2020-08-06T14:57:46Z,42.805,6.029,13.2989,4.60019,2470.03,2020-8-06T16:58:34Z
2020-08-06T15:00:49Z,42.805,6.029,13.2980,4.60019,2470.017,2020-8-06T17:01:37Z
2020-08-06T15:03:52Z,42.805,6.029,13.2981,4.59998,2469.993,2020-8-06T17:04:40Z
2020-08-06T15:06:55Z,42.805,6.029,13.2991,4.60003,2470.017,2020-8-06T17:07:44Z
2020-08-06T15:09:59Z,42.805,6.029,13.2991,4.60024,2469.993,2020-8-06T17:10:47Z
2020-08-06T15:13:02Z,42.805,6.029,13.2992,4.60039,2470.017,2020-8-06T17:13:50Z
2020-08-06T15:16:05Z,42.805,6.029,13.2982,4.60038,2470.03,2020-8-06T17:16:54Z